Weather History for KRKS - October, 2012

Change the Weather History Date:

Friday, October 12, 2012

  Actual Average Record
Temperature  
Mean Temperature 51 °F 46 °F  
Max Temperature 60 °F 58 °F 76 °F (1950)
Min Temperature 41 °F 33 °F 9 °F (1969)
Degree Days  
Heating Degree Days 14 19  
Month to date heating degree days 212 205  
Since 1 July heating degree days 341 533  
Cooling Degree Days 0 0  
Month to date cooling degree days 0 0  
Year to date cooling degree days 541 286  
Moisture  
Dew Point 31 °F    
Average Humidity 53    
Maximum Humidity 70    
Minimum Humidity 35    
Precipitation  
Precipitation 0.01 in 0.03 in 0.44 in (1975)
Month to date precipitation 0.01 0.34  
Year to date precipitation 2.70 7.04  
Snow  
Snow 0.00 in - - ()
Snow Depth 0.00 in    
Sea Level Pressure  
Sea Level Pressure 29.88 in    
Wind  
Wind Speed 7 mph (South)    
Max Wind Speed 16 mph    
Max Gust Speed 39 mph    
Visibility 10 miles    
Events Rain    
T = Trace of Precipitation, MM = Missing Value Source: NWS Daily Summary

Daily Weather History Graph

Daily Weather History Graph

Search for Another Location

Airport or City:

Trip Planner

Search our weather history database for the weather conditions in past years. The results will help you decide how hot, cold, wet, or windy it might be!

Date:

Astronomy

Oct. 12, 2012 Rise Set
Actual Time 7:25 AM MDT 6:38 PM MDT
Civil Twilight 6:57 AM MDT 7:06 PM MDT
Nautical Twilight 6:25 AM MDT 7:38 PM MDT
Astronomical Twilight 5:53 AM MDT 8:10 PM MDT
Moon 4:09 AM MDT (10/12) 4:52 PM MDT (10/12)
Length of Visible Light 12h 09m
Length of Day
11h 13m
Waning Crescent, 10% of the Moon is Illuminated
Oct 12
Waning Crescent
Oct 15
New
Oct 21
First Quarter
Oct 29
Full
Nov 6
Last Quarter

Hourly Weather History & Observations

Time (MDT) Temp. Windchill Dew Point Humidity Pressure Visibility Wind Dir Wind Speed Gust Speed Precip Events Conditions
12:54 AM 53.1 °F - 26.1 °F 35% 29.88 in 10.0 mi South 6.9 mph - N/A   Clear
1:54 AM 51.1 °F - 26.1 °F 38% 29.88 in 10.0 mi SSE 5.8 mph - N/A   Partly Cloudy
2:54 AM 50.0 °F - 25.0 °F 38% 29.90 in 10.0 mi SSE 10.4 mph - N/A   Clear
3:54 AM 50.0 °F - 25.0 °F 38% 29.87 in 10.0 mi Calm Calm - N/A   Clear
4:54 AM 46.9 °F - 24.1 °F 41% 29.89 in 10.0 mi South 5.8 mph - N/A   Clear
5:54 AM 48.0 °F - 24.1 °F 39% 29.88 in 10.0 mi SSE 6.9 mph - N/A   Clear
6:54 AM 46.0 °F 43.1 °F 24.1 °F 42% 29.90 in 10.0 mi SE 5.8 mph - N/A   Clear
7:54 AM 46.0 °F 43.1 °F 24.1 °F 42% 29.92 in 10.0 mi SE 5.8 mph - N/A   Clear
8:54 AM 51.1 °F - 25.0 °F 36% 29.90 in 10.0 mi East 3.5 mph - N/A   Clear
9:54 AM 52.0 °F - 27.0 °F 38% 29.91 in 10.0 mi Calm Calm - N/A   Mostly Cloudy
10:54 AM 54.0 °F - 26.1 °F 34% 29.89 in 10.0 mi Calm Calm - N/A   Overcast
11:54 AM 50.0 °F - 42.1 °F 74% 29.91 in 6.0 mi South 21.9 mph 28.8 mph 0.00 in Rain Rain
12:54 PM 52.0 °F - 44.1 °F 74% 29.89 in 10.0 mi South 9.2 mph 20.7 mph N/A   Mostly Cloudy
1:54 PM 57.9 °F - 39.9 °F 51% 29.83 in 10.0 mi WSW 8.1 mph - N/A   Mostly Cloudy
2:54 PM 57.9 °F - 39.0 °F 49% 29.82 in 10.0 mi SSE 12.7 mph - N/A   Mostly Cloudy
4:54 PM 50.0 °F - 37.0 °F 61% 29.85 in 10.0 mi SSW 31.1 mph 41.4 mph 0.00 in   Overcast
5:54 PM 46.9 °F - 36.0 °F 66% 29.86 in 10.0 mi SSW 16.1 mph - N/A   Mostly Cloudy
6:54 PM 48.0 °F - 36.0 °F 63% 29.86 in 10.0 mi West 8.1 mph - N/A   Mostly Cloudy
8:54 PM 45.0 °F 40.1 °F 32.0 °F 60% 29.89 in 10.0 mi SSW 9.2 mph - N/A   Clear
9:54 PM 43.0 °F - 34.0 °F 71% 29.91 in 10.0 mi Calm Calm - N/A   Clear
10:54 PM 42.1 °F 36.6 °F 33.1 °F 70% 29.90 in 10.0 mi SW 9.2 mph - N/A   Clear
11:54 PM 41.0 °F 35.8 °F 32.0 °F 70% 29.91 in 10.0 mi SSW 8.1 mph - N/A   Scattered Clouds